Starlink 35914

operational
NORAD ID: 66532 Int'l Des: 2025-265 Owner: SPXS Country: US Constellation: starlink
LEOCIRCULAR

About Starlink 35914

Description loading...

Live Position

Loading 3D Globe...

Upcoming Passes

Altitude History

Altitude vs Time

uPlot chart will show altitude changes over time

Two-Line Element Set

1 66532U 25265S 26062.03375020 .00028639 00000-0 10461-2 0 9990
2 66532 43.0028 315.6823 0001694 268.8729 91.1929 15.27582003 16091
Epoch: Mar 3, 2026 • Age: 37 hours

Current Status

Altitude 486.9 km
Velocity 7.63 km/s
Sub-Earth Point 42.67°N, 25.25°E
Launch Date Nov 19, 2025
Age 0.2 years
Type internet

Technical Details

Classification Payload
Mass 575.00 kg
Dry Mass 530.00 kg
Total Mass 575.00 kg
Length 0.30 m
Diameter 4.10 m
Span 29.00 m
Shape Box + pan
Manufacturer SPXS
Bus Type Starlink V2MO
Phase Status In Orbit
Owner/State SPXS/US

Large Constellations

Loading constellations...